Regional Weather Roundup
Issued by NWS

Home | Current Version | Previous Version | Graphics & Text | Print | Product List | Glossary On
Versions: 1 2 3 4 5 6 7 8 9 10 11 12 13 14 15 16 17 18 19 20 21 22 23 24 25 26 27 28 29 30 31 32 33 34 35 36 37 38 39 40 41 42 43 44 45 46 47 48 49 50
000
ASUS45 KTFX 220919
RWRMT
MONTANA HOURLY WEATHER ROUNDUP
NATIONAL WEATHER SERVICE GREAT FALLS MT
319 AM MDT MON SEP 22 2014

NOTE: "FAIR" INDICATES FEW OR NO CLOUDS BELOW 12000 FEET WITH NO
SIGNIFICANT WEATHER AND/OR OBSTRUCTIONS TO VISIBILITY.

* THESE STATIONS ARE NOT UNDER NWS QUALITY CONTROL. THEY DO NOT
   REPORT WEATHER SUCH AS PRECIPITATION OR FOG.

MTZ001>007-043-221000-
WEST OF THE DIVIDE
CITY           SKY/WX    TMP DP  RH WIND       PRES   REMARKS
KALISPELL      PTCLDY    45  41  86 CALM      29.95S
MISSOULA       PTCLDY    54  43  67 CALM      29.98S
BUTTE          MOCLDY    48  39  71 S3        30.12S
MULLAN PASS    PTCLDY    63  37  38 NW6       30.11F
* ESSEX        N/A       51  42  71 SE4G9      N/A
* LINCOLN      N/A       41  37  86 SW1        N/A
* POLSON       N/A       57  40  53 N/A        N/A
* RONAN APT    CLEAR     48  41  77 N/A        N/A
* SEELEY LAKE  N/A       41  34  76 NE1        N/A
* THOMP F APT  PTCLDY    51  50  96 S4         N/A
$$

MTZ008-052>055-221000-
SOUTHWEST MONTANA
CITY           SKY/WX    TMP DP  RH WIND       PRES   REMARKS
BOZEMAN        CLOUDY    52  46  80 N6        30.07F
DILLON         CLOUDY    63  46  54 S12       30.12R
W YELLOWSTONE  LGT RAIN  50  50 100 CALM      30.23F
* THREE FORKS  CLOUDY    48  30  50 N/A        N/A
* BOULDER HILL N/A       52  37  57 S9         N/A
* MONIDA PASS  N/A       50  50 100 E12        N/A
* RAYNOLDS PAS N/A       51  36  57 S8         N/A
* WHITEHALL    N/A       50  43  77 N2         N/A
* WISE RIVER   N/A       44  36  74 E1         N/A
$$

MTZ009>010-012-014-046-048-049-054-221000-
EAST SLOPES AND CENTRAL MONTANA
CITY           SKY/WX    TMP DP  RH WIND       PRES   REMARKS
CUT BANK       MOCLDY    45  39  80 NW6       29.96F
GREAT FALLS    CLEAR     59  45  60 S10       29.96F
HELENA         PTCLDY    54  45  72 SE3       30.02F
MALMSTROM AFB  CLEAR     50  45  83 SW6       29.97F
* CONRAD       PTCLDY    43  43 100 N/A        N/A
* EAST GLACIER N/A       54  40  59 NW8        N/A
* MONARCH      N/A       51  37  59 N1G9       N/A
* PENDROY      N/A       53  46  77 SW1        N/A
* ROGERS PASS  N/A       59  42  53 NW6        N/A
* SAINT MARY   N/A       40  37  89 S3         N/A
* SWEET GRASS  N/A       54  45  72 SW18       N/A
* WHITE SULPH  N/A       51  41  69 E9         N/A
$$

MTZ011-013-016-021-035-040-045-047-050-051-221000-
NORTH CENTRAL MONTANA
CITY           SKY/WX    TMP DP  RH WIND       PRES   REMARKS
HAVRE          CLEAR     50  45  83 E7        29.92F
LEWISTOWN      PTCLDY    48  39  71 S5        30.01F
* CHINOOK      CLEAR     48  45  89 E5        29.94F
* FORT BENTON  CLEAR     52  45  77 CALM      29.95F
* CHESTER      N/A       55  44  67 S1         N/A
* DENTON       N/A       57  41  55 SE8        N/A
* GEYSER       N/A       45  42  89 SW6        N/A
* JUDITH GAP   N/A       50  43  77 S4         N/A
* LOMA         N/A       57  45  64 NE7        N/A
$$

MTZ017>020-022>027-061-062-221000-
NORTHEAST MONTANA
CITY           SKY/WX    TMP DP  RH WIND       PRES   REMARKS
GLASGOW        CLEAR     50  36  59 E14       30.00F
JORDAN         CLEAR     54  37  53 E6        30.01F
SIDNEY         CLEAR     39  34  82 CALM      30.10F
WOLF POINT     CLEAR     46  36  68 E7        30.04F
* BEAVER HILL  N/A       55  35  47 SE14G19    N/A
* CIRCLE       N/A       54  39  57 SE2        N/A
* LINDSAY DVD  N/A       48  34  59 E4         N/A
* SACO         N/A       51  40  66 NE12       N/A
$$

MTZ028>042-056>058-221000-
SOUTHCENTRAL AND SOUTHEAST MONTANA
CITY           SKY/WX    TMP DP  RH WIND       PRES   REMARKS
BAKER          PTCLDY    48  36  63 SE9       30.11F
BILLINGS       CLOUDY    55  45  69 CALM      30.01F
LIVINGSTON     CLOUDY    52  45  77 NW7       30.06F
MILES CITY     PTCLDY    61  37  41 SE10      30.03F
* LAUREL APT   CLOUDY    57  39  51 N/A        N/A
* ROUNDUP APT  PTCLDY    50  41  71 N/A        N/A
* ALZADA       N/A       46  39  77 E2         N/A
* HYSHAM       N/A       67  40  37 S5G12      N/A
* LAME DEER    N/A       60  41  50 SE13G20    N/A
* REED POINT   N/A       50  48  93 W2         N/A
* ROSCOE HILL  N/A       57  40  53 SW3        N/A
$$

REGIONAL REPORTS...DAKOTAS
CITY           SKY/WX    TMP DP  RH WIND       PRES   REMARKS
WILLISTON      CLEAR     39  34  82 CALM      30.09F
DICKINSON      CLEAR     46  37  71 S9        30.13F
BEACH          HAZE      48  36  63 S10       30.10F VSB 3
CROSBY         CLEAR     46  43  89 S10       30.09F
TIOGA          CLEAR     39  39 100 SE3       30.13F
WATFORD CITY   HAZE      41  36  82 E3        30.08F VSB 3
BISMARCK       CLEAR     46  43  89 E3        30.18F
GRAND FORKS    CLEAR     46  45  96 S6        30.14S
FARGO          CLEAR     50  46  86 S6        30.18F
BUFFALO SD     PTCLDY    52  36  55 SE5       30.08F
RAPID CITY     CLEAR     48  37  66 SE9       30.18F
$$

REGIONAL REPORTS...WYOMING/IDAHO/WASHINGTON
CITY           SKY/WX    TMP DP  RH WIND       PRES   REMARKS
GILLETTE       MOCLDY    57  39  51 S10       30.12F
SHERIDAN       CLOUDY    55  45  69 S6        30.04F
CODY           CLOUDY   N/A N/A N/A N/A        N/A
YELLOWSTONE LA CLOUDY    48  46  93 CALM      30.31F
SALMON         CLOUDY    66  46  49 S10       30.04S
MULLAN PASS    PTCLDY    63  37  38 NW6       30.11S
SAND POINT     PTCLDY    50  50 100 CALM      29.92S
SPOKANE        MOCLDY    64  41  43 CALM      29.91R
$$

REGIONAL REPORTS...ALBERTA
CITY           SKY/WX    TMP DP  RH WIND       PRES   REMARKS
CALGARY        N/A       55  41  59 SW5       29.87S
LETHBRIDGE     CLEAR     52  45  77 SW5       29.88F
MEDICINE HAT   CLEAR     54  46  74 N3        29.88S
EDMONTON       N/A       45  41  86 S5        29.76S
WATERTON GATE  N/A       59  39  48 SW12       N/A
CARDSTON       N/A       54  39  57 SW3        N/A
$$

REGIONAL REPORTS...SASKATCHEWAN
CITY           SKY/WX    TMP DP  RH WIND       PRES   REMARKS
SWIFT CURRENT  CLEAR     55  39  55 S23G29    29.93F
REGINA         N/A       45  41  86 SE8       30.04F
VAL MARIE      N/A       43  39  86 W2         N/A
ASSINIBOIA     N/A       46  37  71 SE7        N/A
CORONACH       N/A       48  36  63 SE6        N/A

$$



USA.gov is the U.S. government's official web portal to all federal, state and local government web resources and services.